TimeEDT,TemperatureF,Dew PointF,Humidity,Sea Level PressureIn,VisibilityMPH,Wind Direction,Wind SpeedMPH,Gust SpeedMPH,PrecipitationIn,Events,Conditions,WindDirDegrees,DateUTC
12:15 AM,63.9,56.1,76,29.99,10.0,NW,5.8,-,N/A,,Overcast,310,2013-10-11 04:15:00
12:35 AM,63.5,55.6,75,29.98,10.0,NW,3.5,-,N/A,,Mostly Cloudy,320,2013-10-11 04:35:00
12:55 AM,62.8,55.2,76,29.98,10.0,NW,3.5,-,N/A,,Mostly Cloudy,320,2013-10-11 04:55:00
1:15 AM,62.8,55.4,77,29.97,10.0,Calm,Calm,-,N/A,,Overcast,0,2013-10-11 05:15:00
1:35 AM,63.1,55.6,76,29.97,10.0,Calm,Calm,-,N/A,,Overcast,0,2013-10-11 05:35:00
1:55 AM,62.2,55.9,80,29.97,10.0,Calm,Calm,-,N/A,,Overcast,0,2013-10-11 05:55:00
2:15 AM,62.4,55.8,79,29.97,10.0,Calm,Calm,-,N/A,,Overcast,0,2013-10-11 06:15:00
2:55 AM,61.5,55.6,81,29.97,10.0,Calm,Calm,-,N/A,,Overcast,0,2013-10-11 06:55:00
3:15 AM,60.1,55.4,85,29.96,10.0,Calm,Calm,-,N/A,,Overcast,0,2013-10-11 07:15:00
3:35 AM,61.3,55.8,82,29.96,10.0,Calm,Calm,-,N/A,,Overcast,0,2013-10-11 07:35:00
3:55 AM,61.7,55.6,80,29.96,10.0,Calm,Calm,-,N/A,,Mostly Cloudy,0,2013-10-11 07:55:00
4:15 AM,61.2,55.0,80,29.96,10.0,Calm,Calm,-,N/A,,Scattered Clouds,0,2013-10-11 08:15:00
4:35 AM,60.3,54.9,82,29.96,10.0,Calm,Calm,-,N/A,,Mostly Cloudy,0,2013-10-11 08:35:00
4:55 AM,60.4,54.9,82,29.96,10.0,Calm,Calm,-,N/A,,Scattered Clouds,0,2013-10-11 08:55:00
5:15 AM,58.5,54.5,87,29.97,10.0,Calm,Calm,-,N/A,,Clear,0,2013-10-11 09:15:00
5:35 AM,57.6,54.5,90,29.97,10.0,Calm,Calm,-,N/A,,Clear,0,2013-10-11 09:35:00
5:55 AM,57.6,54.1,88,29.97,10.0,Calm,Calm,-,N/A,,Clear,0,2013-10-11 09:55:00
6:15 AM,56.8,53.8,89,29.98,10.0,Calm,Calm,-,N/A,,Clear,0,2013-10-11 10:15:00
6:35 AM,56.1,53.4,91,29.98,7.0,Calm,Calm,-,N/A,,Scattered Clouds,0,2013-10-11 10:35:00
6:55 AM,55.9,53.2,91,29.98,10.0,Calm,Calm,-,N/A,,Scattered Clouds,0,2013-10-11 10:55:00
7:15 AM,55.8,52.9,90,29.97,10.0,Calm,Calm,-,N/A,,Clear,0,2013-10-11 11:15:00
7:35 AM,55.4,52.5,90,29.98,10.0,Calm,Calm,-,N/A,,Clear,0,2013-10-11 11:35:00
7:55 AM,55.2,52.5,91,29.98,10.0,Calm,Calm,-,N/A,,Clear,0,2013-10-11 11:55:00
8:15 AM,57.6,54.5,90,29.98,10.0,Calm,Calm,-,N/A,,Clear,0,2013-10-11 12:15:00
8:35 AM,59.4,55.4,87,29.99,10.0,Calm,Calm,-,N/A,,Clear,0,2013-10-11 12:35:00
8:55 AM,61.5,57.2,86,29.99,10.0,Calm,Calm,-,N/A,,Mostly Cloudy,0,2013-10-11 12:55:00
9:15 AM,63.3,57.4,81,30.00,10.0,Calm,Calm,-,N/A,,Overcast,0,2013-10-11 13:15:00
9:35 AM,63.9,56.5,77,30.00,10.0,Calm,Calm,-,N/A,,Overcast,0,2013-10-11 13:35:00
9:55 AM,64.9,57.4,76,30.00,10.0,Calm,Calm,-,N/A,,Overcast,0,2013-10-11 13:55:00
10:15 AM,66.7,58.1,74,30.00,10.0,NNW,4.6,-,N/A,,Overcast,330,2013-10-11 14:15:00
10:35 AM,67.5,57.2,70,30.00,10.0,NNW,5.8,-,N/A,,Overcast,340,2013-10-11 14:35:00
10:55 AM,67.6,57.0,69,30.00,10.0,NNW,4.6,-,N/A,,Overcast,330,2013-10-11 14:55:00
11:15 AM,68.0,57.6,69,30.00,10.0,NW,4.6,-,N/A,,Overcast,320,2013-10-11 15:15:00
11:35 AM,68.5,58.1,69,30.00,10.0,NNW,5.8,-,N/A,,Overcast,330,2013-10-11 15:35:00
11:55 AM,69.4,58.1,67,29.99,10.0,NW,3.5,-,N/A,,Overcast,320,2013-10-11 15:55:00
12:15 PM,70.0,57.9,65,29.99,10.0,NNW,5.8,-,N/A,,Overcast,340,2013-10-11 16:15:00
12:35 PM,70.7,58.5,65,29.99,10.0,NNW,4.6,-,N/A,,Overcast,340,2013-10-11 16:35:00
12:55 PM,72.9,59.4,62,29.98,10.0,North,4.6,-,N/A,,Overcast,10,2013-10-11 16:55:00
1:15 PM,72.5,58.5,61,29.97,10.0,NNW,6.9,-,N/A,,Overcast,340,2013-10-11 17:15:00
1:35 PM,73.6,59.4,61,29.97,10.0,NW,4.6,-,N/A,,Overcast,320,2013-10-11 17:35:00
1:55 PM,73.6,59.0,60,29.96,10.0,North,5.8,-,N/A,,Overcast,360,2013-10-11 17:55:00
2:15 PM,73.4,59.5,62,29.95,10.0,North,4.6,-,N/A,,Overcast,360,2013-10-11 18:15:00
2:35 PM,74.1,59.7,61,29.95,10.0,North,5.8,-,N/A,,Overcast,360,2013-10-11 18:35:00
2:55 PM,74.5,59.2,59,29.95,10.0,North,6.9,-,N/A,,Overcast,360,2013-10-11 18:55:00
3:15 PM,74.8,58.5,57,29.95,10.0,North,5.8,-,N/A,,Overcast,10,2013-10-11 19:15:00
3:35 PM,74.1,58.6,58,29.95,10.0,North,6.9,-,N/A,,Overcast,360,2013-10-11 19:35:00
3:55 PM,73.6,58.5,59,29.95,10.0,North,10.4,-,N/A,,Overcast,360,2013-10-11 19:55:00
4:15 PM,74.3,58.3,57,29.95,10.0,NNE,6.9,-,N/A,,Overcast,30,2013-10-11 20:15:00
4:35 PM,73.9,58.6,59,29.95,10.0,NE,5.8,-,N/A,,Overcast,40,2013-10-11 20:35:00
4:55 PM,73.6,59.0,60,29.95,10.0,NNE,3.5,-,N/A,,Overcast,20,2013-10-11 20:55:00
5:15 PM,73.0,59.0,61,29.95,10.0,NNE,4.6,-,N/A,,Overcast,20,2013-10-11 21:15:00
5:35 PM,72.5,58.8,62,29.95,10.0,North,3.5,-,N/A,,Overcast,10,2013-10-11 21:35:00
5:55 PM,71.8,59.0,64,29.96,10.0,North,3.5,-,N/A,,Overcast,360,2013-10-11 21:55:00
6:15 PM,71.1,59.0,66,29.97,10.0,Calm,Calm,-,N/A,,Overcast,0,2013-10-11 22:15:00
6:35 PM,70.7,59.2,67,29.97,10.0,North,3.5,-,N/A,,Overcast,350,2013-10-11 22:35:00
6:55 PM,70.5,59.0,67,29.97,10.0,Calm,Calm,-,N/A,,Overcast,0,2013-10-11 22:55:00
7:15 PM,70.0,58.6,67,29.98,10.0,North,4.6,-,N/A,,Overcast,360,2013-10-11 23:15:00
7:35 PM,69.8,58.5,67,29.98,10.0,North,3.5,-,N/A,,Overcast,350,2013-10-11 23:35:00
7:55 PM,69.8,58.5,67,29.98,10.0,North,3.5,-,N/A,,Overcast,350,2013-10-11 23:55:00
8:15 PM,69.3,58.5,68,29.99,10.0,Calm,Calm,-,N/A,,Overcast,0,2013-10-12 00:15:00
8:35 PM,68.9,58.6,70,29.99,10.0,North,4.6,-,N/A,,Overcast,360,2013-10-12 00:35:00
8:55 PM,68.9,58.5,69,30.00,10.0,North,4.6,-,N/A,,Overcast,360,2013-10-12 00:55:00
9:15 PM,68.5,58.5,70,30.00,10.0,North,3.5,-,N/A,,Overcast,350,2013-10-12 01:15:00
9:35 PM,68.2,58.5,71,30.00,10.0,NNW,3.5,-,N/A,,Overcast,340,2013-10-12 01:35:00
9:55 PM,68.0,58.8,72,30.00,10.0,NNW,3.5,-,N/A,,Overcast,340,2013-10-12 01:55:00
10:15 PM,67.8,59.0,73,30.00,10.0,NW,3.5,-,N/A,,Overcast,320,2013-10-12 02:15:00
10:35 PM,67.8,58.8,73,30.00,10.0,Calm,Calm,-,N/A,,Overcast,0,2013-10-12 02:35:00
10:55 PM,67.3,59.0,75,30.00,10.0,Calm,Calm,-,N/A,,Overcast,0,2013-10-12 02:55:00
11:15 PM,66.7,59.0,76,30.00,10.0,Calm,Calm,-,N/A,,Overcast,0,2013-10-12 03:15:00
11:35 PM,66.2,59.4,79,30.00,10.0,Calm,Calm,-,N/A,,Overcast,0,2013-10-12 03:35:00
11:55 PM,66.0,59.0,78,30.00,10.0,Calm,Calm,-,N/A,,Overcast,0,2013-10-12 03:55:00